This demonstration page uses our WeatherBlox Daily Observations layout. Learn more.

Left ArrowRight Arrow

38.83388, -104.82136

Hourly Observations for April 15, 2022

Temp ( °F °C ) Dew Point ( °F °C ) Humidity (%) Winds ( mph kmh ) Pressure ( in mb ) Visibility ( mi km ) Precip ( " mm )
12:58 am 00:58 Clear 44 6.8 2 -16.6 17 17 SSE 10 17 29.56 1001 10 16 0.00 0.00
1:58 am 01:58 Clear 42 5.4 2 -16.4 19 19 ESE 7 11 29.54 1000 10 16 0.00 0.00
2:58 am 02:58 Clear 41 4.9 2 -16.8 19 19 ESE 12 19 29.49 999 10 16 0.00 0.00
3:58 am 03:58 Clear 40 4.3 2 -16.7 20 20 ESE 3 6 29.50 999 10 16 0.00 0.00
4:58 am 04:58 Clear 39 3.7 6 -14.5 25 25 W 3 6 29.48 998 10 16 0.00 0.00
5:58 am 05:58 Clear 40 4.4 10 -12.1 29 29 WNW 8 13 29.49 999 10 16 0.00 0.00
6:58 am 06:58 Sunny 43 6.1 13 -10.6 29 29 W 7 11 29.51 999 10 16 0.00 0.00
7:58 am 07:58 Sunny 49 9.4 16 -8.7 27 27 NE 7 11 29.53 1000 10 16 0.00 0.00
8:37 am 08:37 Sunny 52 11 16 -9 24 24 ENE 17 28 29.51 999 10 16 0.00 0.00
8:42 am 08:42 Sunny 52 11 18 -8 26 26 NNE 13 20 29.51 999 10 16 0.00 0.00
8:58 am 08:58 Sunny 53 11.8 16 -8.7 23 23 ENE 16 26 29.52 1000 10 16 0.00 0.00
9:00 am 09:00 Sunny 54 12 18 -8 24 24 NNE 12 19 29.52 1000 10 16 0.00 0.00
9:58 am 09:58 Sunny 57 14 14 -10 18 18 SE 5 7 29.56 1001 10 16 0.00 0.00
10:42 am 10:42 Sunny 59 15 16 -9 18 18 E 14 22 29.56 1001 10 16 0.00 0.00
10:49 am 10:49 Sunny 57 14 16 -9 20 20 NE 17 28 29.56 1001 10 16 0.00 0.00
10:58 am 10:58 Sunny 57 14.1 14 -9.9 18 18 NE 14 22 29.56 1001 10 16 0.00 0.00
10:59 am 10:59 Sunny 57 14 14 -10 18 18 ENE 15 24 29.56 1001 10 16 0.00 0.00
11:50 am 11:50 Sunny 61 16 14 -10 16 16 ENE 15 24 29.61 1003 10 16 0.00 0.00
11:58 am 11:58 Sunny 61 16.1 14 -9.8 16 16 N 5 7 29.61 1003 10 16 0.00 0.00
12:29 pm 12:29 Sunny 61 16 10 -12 13 13 NE 12 19 29.64 1004 10 16 0.00 0.00
12:58 pm 12:58 Sunny 60 15.4 10 -12 14 14 NNE 7 11 29.64 1004 10 16 0.00 0.00
1:58 pm 13:58 Sunny 62 16.9 7 -13.8 11 11 NNW 7 11 29.67 1005 10 16 0.00 0.00
2:58 pm 14:58 Mostly Sunny 64 17.7 8 -13.2 11 11 NNW 6 9 29.67 1005 10 16 0.00 0.00
3:58 pm 15:58 Sunny 63 17.4 8 -13.4 11 11 NE 6 9 29.65 1004 10 16 0.00 0.00
4:58 pm 16:58 Sunny 62 16.8 5 -15 10 10 ENE 17 28 29.66 1004 10 16 0.00 0.00
5:58 pm 17:58 Mostly Sunny 62 16.4 4 -15.3 10 10 W 3 6 29.65 1004 10 16 0.00 0.00
6:58 pm 18:58 Mostly Cloudy 52 11.3 15 -9.7 22 22 ESE 5 7 29.68 1005 10 16 0.00 0.00
7:58 pm 19:58 Cloudy 48 8.9 15 -9.6 26 26 E 8 13 29.67 1005 10 16 0.00 0.00
8:58 pm 20:58 Cloudy 44 6.9 14 -9.9 29 29 ESE 6 9 29.70 1006 10 16 0.00 0.00
9:58 pm 21:58 Mostly Cloudy 42 5.4 15 -9.6 33 33 ESE 9 15 29.72 1006 10 16 0.00 0.00
10:58 pm 22:58 undefined 39 3.7 14 -10 36 36 ESE 14 22 29.72 1006 10 16 0.00 0.00
11:58 pm 23:58 undefined N/A N/A N/A undefined N/A N/A 10 16 0.00 0.00

Powered by AerisWeather